Location: Miss�
(46.9484°N, 0.1922°W)
Time: 08:01:18
(UTC+00:00)

Cosmos 1805 Rocket - Pass Details

Date: 02 March 2021
Orbit: 606 x 629 km, 82.5° (Epoch: 11 April)

Event Time Altitude Azimuth Distance (km) Brightness Sun altitude
Rises 18:17:33 0° 195° (SSW) 2,870 7.2 -5.8°
Reaches altitude 10° 18:19:46 10° 198° (SSW) 1,973 6.5 -6.2°
Maximum altitude 18:24:06 65° 281° (W) 685 4.1 -7.0°
Drops below altitude 10° 18:28:31 10° 4° (N) 2,004 6.1 -7.7°
Sets 18:30:48 0° 7° (N) 2,919 6.9 -8.1°
